Weather History for KDFI - June, 2013

Change the Weather History Date:

Friday, June 7, 2013

  Actual Average Record
Temperature  
Mean Temperature 61 °F -  
Max Temperature 68 °F 79 °F 96 °F (2011)
Min Temperature 53 °F 55 °F 43 °F (1977)
Degree Days  
Heating Degree Days 4    
Growing Degree Days 11 (Base 50)    
Moisture  
Dew Point 52 °F    
Average Humidity 73    
Maximum Humidity 90    
Minimum Humidity 59    
Precipitation  
Precipitation 0.00 in - - ()
Sea Level Pressure  
Sea Level Pressure 29.89 in    
Wind  
Wind Speed 4 mph (NNE)    
Max Wind Speed 12 mph    
Max Gust Speed 16 mph    
Visibility 9 miles    
Events      
Averages and records for this station are not official NWS values.
T = Trace of Precipitation, MM = Missing Value Source: NWS Daily Summary

Daily Weather History Graph

Daily Weather History Graph

Search for Another Location

Airport or City:

Trip Planner

Search our weather history database for the weather conditions in past years. The results will help you decide how hot, cold, wet, or windy it might be!

Date:

Astronomy

Jun. 07, 2013 Rise Set
Actual Time 6:04 AM EDT 9:08 PM EDT
Civil Twilight 5:31 AM EDT 9:42 PM EDT
Nautical Twilight 4:48 AM EDT 10:25 PM EDT
Astronomical Twilight 3:57 AM EDT 11:15 PM EDT
Moon 5:27 AM EDT (6/7) 8:21 PM EDT (6/7)
Length of Visible Light 16h 11m
Length of Day
15h 04m
Waning Crescent, 1% of the Moon is Illuminated
Jun 7
Waning Crescent
Jun 8
New
Jun 16
First Quarter
Jun 23
Full
Jun 30
Last Quarter

Hourly Weather History & Observations

Time (EDT) Temp. Dew Point Humidity Pressure Visibility Wind Dir Wind Speed Gust Speed Precip Events Conditions
12:53 AM 57.9 °F 52.0 °F 81% 29.89 in 10.0 mi Calm Calm - N/A   Clear
1:53 AM 55.0 °F 52.0 °F 89% 29.88 in 6.0 mi Calm Calm - N/A   Clear
2:53 AM 54.0 °F 51.1 °F 90% 29.88 in 4.0 mi Calm Calm - N/A   Clear
3:53 AM 54.0 °F 51.1 °F 90% 29.87 in 4.0 mi North 4.6 mph - N/A   Clear
4:53 AM 54.0 °F 51.1 °F 90% 29.87 in 5.0 mi NNE 3.5 mph - N/A   Clear
5:53 AM 54.0 °F 50.0 °F 86% 29.88 in 5.0 mi Calm Calm - N/A   Clear
6:53 AM 54.0 °F 51.1 °F 90% 29.89 in 8.0 mi North 6.9 mph - N/A   Clear
7:53 AM 55.9 °F 51.1 °F 84% 29.90 in 10.0 mi NNE 4.6 mph - N/A   Clear
8:53 AM 59.0 °F 51.1 °F 75% 29.90 in 10.0 mi NNE 9.2 mph - N/A   Clear
9:53 AM 61.0 °F 52.0 °F 72% 29.90 in 10.0 mi NNE 8.1 mph - N/A   Clear
10:53 AM 64.0 °F 52.0 °F 65% 29.89 in 10.0 mi North 10.4 mph - N/A   Clear
11:34 AM 64.4 °F 53.6 °F 68% 29.90 in 10.0 mi NNE 9.2 mph - N/A   Mostly Cloudy
11:53 AM 64.0 °F 52.0 °F 65% 29.90 in 10.0 mi NNE 9.2 mph - N/A   Mostly Cloudy
12:53 PM 64.0 °F 53.1 °F 67% 29.90 in 10.0 mi NNE 9.2 mph 16.1 mph N/A   Mostly Cloudy
1:53 PM 66.0 °F 53.1 °F 63% 29.90 in 10.0 mi NE 9.2 mph - N/A   Mostly Cloudy
2:53 PM 66.0 °F 53.1 °F 63% 29.89 in 10.0 mi North 8.1 mph - N/A   Mostly Cloudy
3:39 PM 68.0 °F 53.6 °F 60% 29.89 in 10.0 mi NNE 9.2 mph 16.1 mph N/A   Scattered Clouds
3:53 PM 66.9 °F 53.1 °F 61% 29.89 in 10.0 mi NNE 11.5 mph - N/A   Scattered Clouds
4:06 PM 66.2 °F 51.8 °F 60% 29.89 in 10.0 mi NNE 11.5 mph - N/A   Mostly Cloudy
4:53 PM 66.9 °F 52.0 °F 59% 29.88 in 10.0 mi NNE 6.9 mph 16.1 mph N/A   Scattered Clouds
5:53 PM 64.9 °F 51.1 °F 61% 29.88 in 10.0 mi ENE 8.1 mph - N/A   Partly Cloudy
6:53 PM 66.0 °F 51.1 °F 59% 29.89 in 10.0 mi NNE 9.2 mph - N/A   Partly Cloudy
7:53 PM 63.0 °F 50.0 °F 63% 29.90 in 10.0 mi NE 5.8 mph - N/A   Partly Cloudy
8:53 PM 63.0 °F 50.0 °F 63% 29.91 in 10.0 mi North 4.6 mph - N/A   Overcast
9:53 PM 60.1 °F 50.0 °F 69% 29.91 in 10.0 mi NNE 3.5 mph - N/A   Clear
10:53 PM 55.9 °F 50.0 °F 80% 29.91 in 10.0 mi Calm Calm - N/A   Clear
11:53 PM 53.1 °F 48.9 °F 86% 29.92 in 10.0 mi Calm Calm - N/A   Clear